Regional Weather Roundup
Issued by NWS

Home | Current Version | Previous Version | Graphics & Text | Print | Product List | Glossary On
Versions: 1 2 3 4 5 6 7 8 9 10 11 12 13 14 15 16 17 18 19 20 21 22 23 24 25 26 27 28 29 30 31 32 33 34 35 36 37 38 39 40 41 42 43 44 45 46 47 48 49 50
000
ASUS43 KOAX 020402
RWRNE

WEATHER ROUNDUP FOR NEBRASKA
NATIONAL WEATHER SERVICE OMAHA NE
1100 PM CDT MON SEP 01 2014

NOTES: SATELLITE DATA IS BEING USED TO AUGMENT CLOUD COVER ABOVE
       12000 FEET.
       "FAIR" INDICATES FEW OR NO CLOUDS BELOW 12,000 FEET WITH NO
       SIGNIFICANT WEATHER AND/OR OBSTRUCTIONS TO VISIBILITY.

  * THESE STATIONS DO NOT REPORT WEATHER SUCH AS RAIN...SNOW OR FOG.

NEZ001>004-019>022-054>056-020500-
NEBRASKA PANHANDLE

CITY           SKY/WX    TMP DP  RH WIND       PRES   REMARKS
SCOTTSBLUFF    CLEAR     53  48  83 NW5       30.08R
ALLIANCE       PTCLDY    54  49  83 CALM      30.06R
CHADRON        CLEAR     50  48  93 W7        30.04R
KIMBALL        CLEAR     53  46  76 NE5       30.10R
SIDNEY         PTCLDY    58  48  69 NE8       30.10R
$$

NEZ057>060-069>072-079>082-020500-
SOUTHWEST NEBRASKA

CITY           SKY/WX    TMP DP  RH WIND       PRES   REMARKS
NORTH PLATTE   PTCLDY    55  53  93 CALM      30.03R
IMPERIAL       PTCLDY    66  53  63 NE15      30.02R
LEXINGTON      LGT RAIN  62  59  87 CALM      30.00S
MCCOOK         PTCLDY    61  55  81 N7        29.97R
OGALLALA       MOCLDY    58  51  77 NE6       30.05R
$$

NEZ005>010-023>029-035>040-094-020500-
NORTH CENTRAL NEBRASKA

CITY           SKY/WX    TMP DP  RH WIND       PRES   REMARKS
VALENTINE      CLEAR     53  51  93 W5        29.99R
AINSWORTH      CLEAR     55  54  98 SW3       29.99R
BROKEN BOW     LGT RAIN  58  55  90 CALM      30.01S
O`NEILL        CLOUDY    57  57  98 CALM      29.95S
ORD            TSTM      57  56  96 S12       29.97R
THEDFORD       MOCLDY    56  54  93 NW3       30.02S
$$

NEZ041-046>049-061>064-073>077-083>087-020500-
SOUTH CENTRAL NEBRASKA

CITY           SKY/WX    TMP DP  RH WIND       PRES   REMARKS
GRAND ISLAND   PTCLDY    60  53  77 N9        29.97F
AURORA         PTCLDY    61  54  77 N10G24    29.97R
HASTINGS       CLEAR     63  58  83 N13       29.96R
HEBRON         CLEAR     60  57  91 CALM      29.91R
HOLDREGE       PTCLDY    61  58  90 N16G25    29.98R
KEARNEY *      PTCLDY    61  55  82 NW15      30.02R
YORK           PTCLDY    63 N/A N/A N14G29    29.98R
$$

NEZ011>018-030>034-042>045-020500-
NORTHEAST NEBRASKA

CITY           SKY/WX    TMP DP  RH WIND       PRES   REMARKS
NORFOLK        RAIN      60  58  92 W8        29.99R FOG
ALBION         CLOUDY    58  56  93 SE7       29.93F
BLAIR          CLEAR     69  60  73 CALM      29.87F
FREMONT        PTCLDY    64  62  93 W5        29.91R
TEKAMAH        PTCLDY    64  62  93 W5        29.88R
WAYNE          TSTM      60  58  91 NW23G37   29.98R
$$

NEZ050>053-065>068-078-088>093-020500-
SOUTHEAST NEBRASKA

CITY           SKY/WX    TMP DP  RH WIND       PRES   REMARKS
LINCOLN        CLEAR     67  63  87 NW3       29.90R
OMAHA EPPLEY   CLEAR     65  62  90 N6        29.87S
BEATRICE       CLEAR     62  61  97 CALM      29.90R
FALLS CITY     CLEAR     65  63  93 CALM      29.89R
NEBRASKA CITY  PTCLDY    64  64 100 CALM      29.90R
PLATTSMOUTH    CLEAR     66  63  90 CALM      29.89R
$$

NEZ044-045-051>053-067-020500-
OMAHA AREA

CITY           SKY/WX    TMP DP  RH WIND       PRES   REMARKS
OMAHA EPPLEY   CLEAR     65  62  90 N6        29.87S
BLAIR          CLEAR     69  60  73 CALM      29.87F
FREMONT        PTCLDY    64  62  93 W5        29.91R
MILLARD        CLEAR     65  63  93 CALM      29.86F
OFFUTT AFB     CLEAR     64  64 100 CALM      29.87R FOG
PLATTSMOUTH    CLEAR     66  63  90 CALM      29.89R
WAHOO          FAIR      62  59  91 W5        29.91R
$$


USA.gov is the U.S. government's official web portal to all federal, state and local government web resources and services.